sat.trackr.live / text

‹ back to catalog

JILIN-1 GAOFEN 2A

NORAD 44777 · 2019-075A

PAYLOAD ACTIVE UNKNOWN

§ Identity

Operator
Country
PRC
Launch date
2019-11-13
Launch site
JSC
Launch vehicle
Mass (kg)
RCS (m²)

External: N2YO · Heavens-Above · Gunter

§ Orbital elements

Epoch: 2026-05-25T04:23:29.033952Z

Period
93.59 min
Inclination
97.4963°
Eccentricity
0.0007308
Mean motion
15.38599751 rev/d
Perigee alt
445.3 km
Apogee alt
455.2 km
Semi-major
6,828.4 km
B*
3.9389e-4
RAAN
228.4476°
Arg perigee
155.1633°
Mean anomaly
204.9965°
Rev number
36,134

§ Raw data

JILIN-1 GAOFEN 2A1 44777U 19075A   26145.18297493  .00014952  00000+0  39389-3 0  99972 44777  97.4963 228.4476 0007308 155.1633 204.9965 15.38599751361349

JSON: /api/v1/satellites/44777 · /tle

For live sub-satellite position, see the globe view (requires WebGL).

§ Visibility from observer

Set your observer location to see the next 7 days of passes ≥ 10°. The values pass through the URL so the page stays shareable.

No JS? Fill the form by hand. The geolocation button needs JavaScript.

§ Radio — SatNOGS DB

ModeDescriptionDownlinkUplink
FM S-band telemetry 2.215 GHz

1 transmitter · refreshed weekly from db.satnogs.org